Weather History for Dublin, Ireland

Change the Weather History Date:

Tuesday, February 26, 2013

  Actual Average Record
Temperature  
Mean Temperature 36 °F -  
Max Temperature 43 °F 49 °F 53 °F (2012)
Min Temperature 29 °F 38 °F 26 °F (2004)
Degree Days  
Heating Degree Days 29    
Moisture  
Dew Point 35 °F    
Average Humidity 85    
Maximum Humidity 100    
Minimum Humidity 67    
Precipitation  
Precipitation 0.00 in 0.07 in - ()
Sea Level Pressure  
Sea Level Pressure 30.59 in    
Wind  
Wind Speed 7 mph ()    
Max Wind Speed 16 mph    
Max Gust Speed -    
Visibility 6.7 miles    
Events      
Averages and records for this station are not official NWS values.
T = Trace of Precipitation, MM = Missing Value Source: Averaged Metar Reports

Daily Weather History Graph

Daily Weather History Graph

Search for Another Location

Airport:

Trip Planner

Search our weather history database for the weather conditions in past years. The results will help you decide how hot, cold, wet, or windy it might be!

Date:

Astronomy

Feb. 26, 2013 Rise Set
Actual Time 7:19 AM GMT 5:57 PM GMT
Civil Twilight 6:44 AM GMT 6:32 PM GMT
Nautical Twilight 6:04 AM GMT 7:13 PM GMT
Astronomical Twilight 5:23 AM GMT 7:53 PM GMT
Moon 7:16 PM GMT (2/26) 7:02 AM GMT (2/26)
Length of Visible Light 11h 48m
Length of Day
10h 38m
Full, 100% of the Moon is Illuminated
Feb 26
Full
Mar 4
Last Quarter
Mar 11
New
Mar 19
First Quarter
Mar 27
Full

Hourly Weather History & Observations

Time (GMT) Temp. Windchill Dew Point Humidity Pressure Visibility Wind Dir Wind Speed Gust Speed Precip Events Conditions
12:00 AM 32 °F - 30 °F 88% 30.58 in 25 mi NW 6.7 mph - -   Scattered Clouds
12:00 AM 32.0 °F 26.4 °F 30.2 °F 93% 30.54 in 6.2 mi NW 5.8 mph - N/A   Partly Cloudy
12:30 AM 33.8 °F 27.0 °F 32.0 °F 93% 30.54 in 6.2 mi North 8.1 mph - N/A   Scattered Clouds
1:00 AM 32.0 °F 25.6 °F 30.2 °F 93% 30.54 in 6.2 mi North 6.9 mph - N/A   Scattered Clouds
1:30 AM 32.0 °F 26.4 °F 28.4 °F 87% 30.54 in 6.2 mi West 5.8 mph - N/A   Scattered Clouds
2:00 AM 30.2 °F 24.3 °F 30.2 °F 100% 30.54 in 6.2 mi NW 5.8 mph - N/A   Scattered Clouds
2:30 AM 33.8 °F 28.6 °F 32.0 °F 93% 30.54 in 6.2 mi North 5.8 mph - N/A   Scattered Clouds
3:00 AM 33.8 °F 29.6 °F 32.0 °F 93% 30.54 in 6.2 mi NW 4.6 mph - N/A   Scattered Clouds
3:30 AM 32.0 °F 27.5 °F 32.0 °F 100% 30.54 in 6.2 mi NNE 4.6 mph - N/A   Scattered Clouds
4:00 AM 33.8 °F 27.7 °F 33.8 °F 100% 30.54 in 6.2 mi NNE 6.9 mph - N/A   Mostly Cloudy
4:30 AM 35.6 °F 30.7 °F 35.6 °F 100% 30.54 in 6.2 mi NNE 5.8 mph - N/A   Mostly Cloudy
5:00 AM 37.4 °F 33.8 °F 35.6 °F 93% 30.54 in 6.2 mi NNE 4.6 mph - N/A   Mostly Cloudy
5:30 AM 37.4 °F 33.8 °F 37.4 °F 100% 30.54 in 6.2 mi NNE 4.6 mph - N/A   Mostly Cloudy
6:00 AM 39 °F - 37 °F 88% 30.57 in 16 mi ENE 6.7 mph - -   Mostly Cloudy
6:00 AM 39.2 °F 34.2 °F 37.4 °F 93% 30.54 in 6.2 mi ENE 6.9 mph - N/A   Mostly Cloudy
6:30 AM 39.2 °F 33.6 °F 35.6 °F 87% 30.54 in 6.2 mi ENE 8.1 mph - N/A   Mostly Cloudy
7:00 AM 39.2 °F 33.0 °F 35.6 °F 87% 30.54 in 6.2 mi ENE 9.2 mph - N/A   Mostly Cloudy
7:30 AM 39.2 °F 33.0 °F 35.6 °F 87% 30.57 in 6.2 mi ENE 9.2 mph - N/A   Mostly Cloudy
8:00 AM 39.2 °F 33.6 °F 35.6 °F 87% 30.57 in 6.2 mi ENE 8.1 mph - N/A   Mostly Cloudy
8:30 AM 39.2 °F 33.0 °F 33.8 °F 81% 30.57 in 6.2 mi ENE 9.2 mph - N/A   Mostly Cloudy
9:00 AM 41.0 °F 35.2 °F 35.6 °F 81% 30.57 in 6.2 mi ENE 9.2 mph - N/A   Mostly Cloudy
9:30 AM 41.0 °F 35.2 °F 33.8 °F 76% 30.57 in 6.2 mi ENE 9.2 mph - N/A   Mostly Cloudy
10:00 AM 41.0 °F 33.5 °F 35.6 °F 81% 30.57 in 6.2 mi ENE 13.8 mph - N/A   Mostly Cloudy
10:30 AM 41.0 °F 33.9 °F 33.8 °F 76% 30.60 in 6.2 mi East 12.7 mph - N/A   Mostly Cloudy
11:00 AM 42.8 °F 35.4 °F 35.6 °F 76% 30.60 in 6.2 mi East 15.0 mph - N/A   Mostly Cloudy
11:30 AM 42.8 °F 35.1 °F 35.6 °F 76% 30.60 in 6.2 mi East 16.1 mph - N/A   Mostly Cloudy
12:00 PM 42 °F - 35 °F 67% 30.62 in 16 mi East 13.4 mph - -   Mostly Cloudy
12:00 PM 41.0 °F 33.5 °F 35.6 °F 81% 30.60 in 6.2 mi East 13.8 mph - N/A   Mostly Cloudy
12:30 PM 41.0 °F 33.5 °F 35.6 °F 81% 30.60 in 6.2 mi East 13.8 mph - N/A   Mostly Cloudy
1:00 PM 41.0 °F 34.3 °F 35.6 °F 81% 30.60 in 6.2 mi ENE 11.5 mph - N/A   Mostly Cloudy
1:30 PM 41.0 °F 34.3 °F 35.6 °F 81% 30.60 in 6.2 mi East 11.5 mph - N/A   Mostly Cloudy
2:00 PM 41.0 °F 34.3 °F 35.6 °F 81% 30.60 in 6.2 mi East 11.5 mph - N/A   Mostly Cloudy
2:30 PM 42.8 °F 36.6 °F 35.6 °F 76% 30.57 in 6.2 mi East 11.5 mph - N/A   Mostly Cloudy
3:00 PM 41.0 °F 34.7 °F 35.6 °F 81% 30.60 in 6.2 mi ENE 10.4 mph - N/A   Mostly Cloudy
3:30 PM 41.0 °F 34.3 °F 35.6 °F 81% 30.60 in 6.2 mi East 11.5 mph - N/A   Mostly Cloudy
4:00 PM 41.0 °F 34.3 °F 35.6 °F 81% 30.60 in 6.2 mi East 11.5 mph - N/A   Mostly Cloudy
4:30 PM 41.0 °F 33.9 °F 35.6 °F 81% 30.60 in 6.2 mi East 12.7 mph - N/A   Mostly Cloudy
5:00 PM 41.0 °F 34.7 °F 35.6 °F 81% 30.60 in 6.2 mi East 10.4 mph - N/A   Mostly Cloudy
5:30 PM 41.0 °F 35.2 °F 35.6 °F 81% 30.60 in 6.2 mi East 9.2 mph - N/A   Mostly Cloudy
6:00 PM 41 °F - 36 °F 77% 30.63 in 12 mi East 6.7 mph - -   Mostly Cloudy
6:00 PM 41.0 °F 36.4 °F 35.6 °F 81% 30.60 in 6.2 mi East 6.9 mph - N/A   Mostly Cloudy
6:30 PM 41.0 °F 35.2 °F 37.4 °F 87% 30.63 in 6.2 mi East 9.2 mph - N/A   Mostly Cloudy
7:00 PM 41.0 °F 36.4 °F 35.6 °F 81% 30.63 in 6.2 mi East 6.9 mph - N/A   Mostly Cloudy
7:30 PM 41.0 °F 36.4 °F 35.6 °F 81% 30.63 in 6.2 mi East 6.9 mph - N/A   Mostly Cloudy
8:00 PM 41.0 °F 37.1 °F 35.6 °F 81% 30.63 in 6.2 mi East 5.8 mph - N/A   Mostly Cloudy
8:30 PM 41.0 °F 36.4 °F 35.6 °F 81% 30.63 in 6.2 mi ENE 6.9 mph - N/A   Mostly Cloudy
9:00 PM 41.0 °F 38.0 °F 35.6 °F 81% 30.63 in 6.2 mi NE 4.6 mph - N/A   Mostly Cloudy
9:30 PM 41.0 °F 38.0 °F 37.4 °F 87% 30.63 in 6.2 mi ENE 4.6 mph - N/A   Mostly Cloudy
10:00 PM 41.0 °F 36.4 °F 37.4 °F 87% 30.66 in 6.2 mi ENE 6.9 mph - N/A   Mostly Cloudy
10:30 PM 41.0 °F 37.1 °F 37.4 °F 87% 30.66 in 5.6 mi ENE 5.8 mph - N/A   Mostly Cloudy
11:00 PM 41.0 °F 37.1 °F 37.4 °F 87% 30.66 in 5.6 mi ENE 5.8 mph - N/A   Mostly Cloudy
11:30 PM 41.0 °F 36.4 °F 37.4 °F 87% 30.66 in 5.6 mi ENE 6.9 mph - N/A   Mostly Cloudy